Theta_e
309 310 310 310 310 308 305 306 301 307 310 303 304 300 298 295 296 299 297 298 297 296 294 295 295 294 294 296 298 295 297 296 291 293 296 297 296 294 294 288 287 290 289 288
309 309 309 309 309 306 307 303 303 310 308 298 297 296 293 294 294 293 295 293 294 295 293 292 295 294 294 295 296 294 296 293 288 289 293 296 293 292 293 293 292 287 285 287
309 310 309 308 307 305 305 302 299 303 304 302 299 295 294 291 293 292 293 292 294 293 291 293 292 292 292 293 293 293 295 293 290 287 288 291 290 290 291 290 286 287 287 289
308 309 308 307 306 304 305 302 296 296 298 297 298 297 294 291 290 292 293 290 291 291 289 290 289 290 290 291 291 292 293 288 289 290 290 290 288 288 288 287 288 284 287 287
308 308 307 306 305 304 305 301 298 298 294 294 296 293 293 292 289 291 289 289 288 289 288 288 287 287 287 287 289 288 289 286 285 284 286 285 283 285 286 285 285 285 286 285
307 308 308 305 304 306 303 301 300 301 290 293 293 292 292 291 291 290 291 290 289 288 288 290 290 291 290 289 287 285 285 285 283 280 283 283 281 284 284 285 285 285 283 287
307 307 307 305 304 305 305 301 302 298 291 293 291 290 290 290 289 288 289 290 289 290 294 293 293 291 290 290 289 289 284 283 284 281 283 276 283 288 288 286 286 287 287 288
306 306 306 305 304 305 302 301 301 299 291 292 290 290 290 290 291 289 289 290 292 294 291 288 285 285 285 286 287 287 288 286 283 280 281 284 284 285 285 284 285 288 287 288
306 306 306 305 304 303 303 300 302 301 293 291 292 290 291 288 288 288 288 292 294 293 290 286 281 281 283 281 283 288 287 288 284 282 277 275 284 287 289 289 280 289 288 288
305 306 305 305 304 302 303 299 301 301 293 292 293 290 289 291 290 289 288 289 289 292 287 284 282 282 285 280 280 281 283 284 281 282 280 282 287 288 290 278 282 289 289 289
305 305 305 304 304 302 302 298 300 300 294 293 294 293 290 290 291 287 289 287 287 288 284 284 284 283 284 282 284 282 281 280 280 281 278 276 290 288 282 287 289 289 289 289
305 305 304 305 304 303 302 297 299 301 297 294 297 296 296 294 293 291 290 288 288 289 286 286 286 283 284 282 279 285 278 283 282 282 282 289 291 290 291 290 288 289 289 291
305 304 304 304 304 302 303 299 299 298 293 292 293 291 296 298 297 298 290 291 291 289 292 289 288 282 285 280 280 281 284 287 282 281 284 285 287 289 290 290 290 291 291 291
305 304 303 303 303 303 303 299 300 297 295 290 288 295 292 296 297 296 296 293 295 294 294 290 288 284 286 283 284 282 285 285 282 282 285 286 287 289 289 290 291 291 291 291
304 304 304 303 302 302 303 301 301 300 295 287 288 292 292 294 295 295 295 294 292 291 289 288 285 288 285 286 285 282 286 284 281 280 286 286 286 289 290 289 289 290 290 290
305 304 304 302 300 297 298 294 301 301 299 291 286 290 289 293 293 293 293 294 293 293 290 289 289 289 287 282 280 286 288 289 288 285 289 289 289 290 291 290 290 291 291 291
304 304 303 302 301 302 295 293 297 298 299 292 285 285 288 291 292 293 292 293 293 291 290 288 287 288 287 284 280 286 287 289 289 290 289 287 289 288 291 291 291 292 292 292
304 304 302 301 300 300 296 300 300 299 294 292 284 284 285 290 288 288 293 290 291 290 289 289 286 287 286 280 285 287 289 289 289 289 290 289 290 290 290 291 291 291 290 290
304 301 299 300 298 295 294 299 299 301 294 285 285 284 282 289 289 291 290 291 284 290 285 285 286 283 280 284 286 287 288 287 287 289 289 289 289 289 290 290 291 290 289 289
301 300 295 285 295 298 299 296 291 290 286 289 285 287 283 288 288 287 286 287 284 279 283 287 282 281 286 288 289 289 289 289 289 286 286 288 288 289 289 290 291 291 290 290
298 289 286 297 298 295 290 285 284 284 282 285 287 286 284 288 283 284 287 284 282 276 281 279 279 279 284 288 288 289 290 290 290 290 290 291 291 290 290 290 291 291 291 290
297 296 298 297 288 284 282 281 282 280 281 285 284 285 287 286 288 284 284 281 279 275 283 278 275 282 286 287 288 289 289 289 289 290 290 291 291 291 291 291 291 291 291 291
298 289 285 284 283 278 277 275 279 280 284 285 284 283 285 286 287 284 282 277 276 282 276 275 279 285 287 288 288 288 289 289 290 291 292 291 291 292 291 291 292 292 290 291
285 284 279 281 278 280 282 282 283 285 286 285 286 283 284 284 282 283 277 280 280 274 273 275 282 285 287 288 288 288 288 289 289 289 290 290 291 291 291 292 292 292 290 290
284 284 279 280 285 285 284 285 284 286 288 286 285 283 283 280 279 279 280 274 273 276 276 281 285 287 287 287 287 288 288 289 289 289 289 290 290 290 291 292 292 291 290 290
285 284 282 285 283 284 283 284 284 287 287 288 287 280 278 277 279 277 275 275 274 278 283 286 287 287 287 288 288 289 289 289 289 289 289 289 290 290 290 291 291 291 290 289
284 283 287 286 285 286 286 287 287 288 286 282 283 278 277 282 278 276 280 278 281 285 286 288 288 288 289 289 289 289 289 288 288 289 289 289 290 290 289 288 289 290 290 288
Wind_Speed
17 19 19 20 17 14 5 2 3 5 4 3 2 4 3 1 3 2 2 2 3 2 1 1 2 2 5 7 5 4 5 6 6 4 5 2 4 5 6 4 1 4 4 2
17 19 19 19 15 10 4 1 2 1 3 3 4 6 5 4 3 3 1 3 3 0 2 2 1 3 3 7 4 4 6 4 5 8 5 3 2 3 2 4 3 8 8 1
16 17 19 19 13 8 4 3 2 3 3 3 6 8 6 5 3 3 3 3 1 4 3 1 4 4 2 3 6 4 4 5 8 8 4 3 3 3 2 6 5 9 9 7
16 18 19 19 13 7 4 3 3 4 3 4 5 3 5 7 5 2 0 3 1 2 3 3 4 2 4 3 4 1 4 6 4 8 5 7 9 9 9 10 11 8 9 4
15 17 19 21 14 7 2 1 3 3 4 2 6 1 4 6 5 1 1 3 2 1 1 5 2 1 1 2 1 0 2 2 4 9 2 6 11 10 8 9 10 10 10 10
15 16 17 19 19 8 3 2 1 3 2 4 4 3 6 7 8 4 3 6 5 7 6 5 4 3 3 4 4 2 3 3 3 2 0 7 10 8 6 0 0 4 6 5
14 17 18 20 20 12 3 3 1 2 4 2 2 5 4 9 2 6 5 2 2 4 2 5 6 6 5 4 4 3 2 3 2 4 4 6 6 3 2 1 1 1 1 1
14 17 17 18 17 16 6 2 2 1 4 6 8 9 8 9 8 9 8 6 6 2 5 3 5 4 4 3 4 1 2 2 3 4 4 4 9 5 4 5 5 4 3 3
14 15 16 16 17 11 4 6 4 2 7 3 9 9 8 7 5 6 4 4 2 4 4 3 3 2 2 4 3 1 4 5 5 3 4 5 8 7 2 2 11 10 2 4
12 14 17 17 14 10 4 5 6 1 5 3 4 3 5 1 1 3 4 5 4 3 4 3 3 3 3 3 4 5 5 5 8 8 6 5 8 5 4 4 5 5 6 11
11 13 15 16 15 11 4 5 7 4 4 6 2 1 4 4 3 3 6 5 4 3 4 2 2 3 3 3 0 2 4 4 5 5 5 7 10 7 5 9 7 10 12 13
11 13 14 16 15 11 3 4 4 7 5 6 6 8 6 7 7 3 3 4 4 4 1 1 1 2 2 2 3 3 5 7 4 4 2 4 5 7 7 8 12 12 10 9
10 11 14 15 15 14 8 4 4 3 5 5 4 4 5 7 6 5 2 2 4 3 3 1 2 4 3 4 6 4 7 6 5 5 6 11 10 12 9 9 8 9 10 12
9 10 11 13 14 15 11 5 4 2 2 4 4 1 4 5 4 5 5 7 5 5 1 2 0 3 2 3 5 8 7 3 8 12 14 13 14 10 6 6 9 11 12 11
7 8 8 8 8 11 9 6 6 5 3 4 5 4 3 3 1 4 4 5 4 3 2 2 3 2 3 3 4 10 10 9 10 10 6 6 10 8 7 10 12 12 12 12
6 6 7 6 3 1 1 2 5 7 4 3 4 3 2 3 3 4 3 2 0 1 2 2 2 1 4 4 6 9 8 12 12 13 10 10 10 11 12 13 12 9 10 9
8 7 8 8 5 4 3 3 3 7 4 2 3 3 3 1 2 2 2 2 1 3 2 3 5 5 4 4 8 7 6 7 10 10 9 12 12 9 8 8 8 5 5 4
9 10 10 10 12 11 4 5 6 5 4 3 3 3 4 3 4 3 0 3 2 3 3 1 4 2 3 7 15 14 13 9 10 11 11 13 11 11 12 10 7 7 7 6
11 9 4 1 4 2 3 4 4 3 3 2 1 4 4 4 3 2 3 2 3 2 4 4 3 5 9 12 12 13 11 11 11 9 9 11 13 13 11 9 9 9 8 6
10 0 2 3 2 4 4 1 2 4 3 3 1 1 4 4 4 3 3 1 1 2 3 1 4 9 17 16 15 14 14 12 10 11 12 13 12 11 11 10 9 9 8 8
1 3 2 0 2 0 3 2 2 2 1 1 1 3 4 0 3 3 1 1 1 3 3 3 4 7 10 8 7 7 8 9 10 11 13 11 9 8 9 11 11 10 10 10
5 6 4 1 3 2 1 0 1 2 1 3 3 3 1 3 1 2 2 2 1 4 2 3 5 7 10 8 7 6 6 8 10 11 11 11 11 11 11 11 11 10 11 10
3 4 3 1 1 2 4 4 2 3 4 5 4 4 3 3 2 2 3 4 4 1 3 5 7 8 9 6 5 9 8 9 10 10 10 10 11 11 12 13 12 12 10 10
3 2 2 3 4 4 3 3 3 4 1 4 4 3 2 2 4 2 4 2 2 5 6 8 7 10 9 8 6 6 9 7 8 10 9 11 12 13 13 13 12 10 11 10
3 2 4 6 3 0 1 2 2 1 0 5 3 3 3 2 3 3 3 4 7 7 8 9 7 6 8 8 8 9 9 9 8 9 9 10 11 12 13 13 10 10 10 10
2 3 3 2 2 3 3 4 3 4 4 2 2 2 3 6 5 8 9 5 8 10 8 7 6 9 10 9 9 8 8 9 11 11 10 10 11 10 9 10 10 10 10 11
4 4 4 3 2 1 2 4 3 6 5 3 2 5 7 1 4 5 5 9 12 11 8 8 12 10 10 9 10 10 10 12 13 13 14 12 10 10 9 11 12 9 9 9
Wind_Direction
350 350 352 349 345 336 279 281 226 19 308 210 18 99 79 359 92 42 41 23 31 336 7 182 159 140 36 358 323 340 27 313 270 37 52 309 286 317 287 268 289 250 293 328
354 350 353 353 347 346 310 279 65 74 284 220 120 130 104 59 142 46 36 112 12 88 142 231 182 103 53 14 10 11 5 205 269 166 173 150 29 29 360 301 268 265 276 38
357 352 356 357 352 341 290 264 202 96 67 339 136 147 145 124 54 92 68 101 225 182 155 89 154 148 89 28 17 328 285 286 277 302 16 345 214 193 322 313 278 290 283 5
6 1 1 3 358 347 279 354 69 357 104 83 110 87 159 152 142 103 219 132 293 255 176 170 148 151 159 98 12 267 316 269 307 282 278 268 274 272 270 254 270 269 296 326
14 7 7 7 9 332 87 2 167 112 91 117 140 175 144 165 118 318 137 267 127 202 96 14 153 205 292 22 74 331 21 278 300 277 232 268 274 265 266 268 274 273 278 282
20 15 15 17 10 321 98 105 100 276 172 158 233 77 132 154 137 75 47 127 137 111 74 30 29 7 42 20 320 310 278 280 252 249 312 301 265 244 222 353 246 288 261 57
22 23 21 23 24 9 59 50 262 225 126 212 100 144 133 143 130 133 107 113 237 86 135 138 111 102 116 108 32 267 282 256 270 290 297 241 78 75 75 247 186 242 187 125
32 29 29 27 30 18 70 62 299 78 112 103 121 125 116 116 98 94 102 73 61 156 169 182 163 155 179 133 37 191 252 265 251 272 255 302 166 187 196 228 232 203 223 223
37 31 33 35 33 20 64 49 313 59 120 99 134 135 158 148 131 146 123 126 110 196 228 211 234 242 25 167 165 92 214 262 270 196 269 277 88 113 78 20 266 154 211 280
43 35 32 34 35 21 51 62 358 37 101 102 156 123 167 21 110 96 141 157 167 239 208 201 216 194 327 226 219 180 201 224 236 249 259 286 126 135 169 243 56 146 291 297
53 42 35 34 34 31 42 73 23 346 86 100 76 112 150 145 236 178 117 170 193 198 211 243 168 252 174 247 41 219 245 240 210 233 241 253 141 158 214 23 323 297 299 302
57 45 35 30 32 30 358 79 39 16 51 79 73 73 43 21 16 111 171 30 80 40 358 275 344 201 205 333 246 195 252 231 311 246 31 57 192 261 286 302 293 293 297 305
74 57 44 35 34 37 31 82 25 89 93 109 161 68 55 43 28 345 231 115 91 125 4 47 44 255 289 217 239 252 227 214 249 295 251 262 278 279 287 284 268 284 289 295
86 70 59 48 49 51 49 56 8 354 99 122 116 174 71 351 11 40 34 103 103 100 19 76 157 263 249 274 330 260 281 127 254 262 268 271 268 271 291 264 268 283 281 283
99 87 72 61 62 63 70 64 41 24 333 133 126 143 72 12 112 99 104 117 131 155 149 188 228 256 244 224 301 263 240 234 240 260 292 295 286 297 309 292 283 285 286 285
127 101 83 60 29 339 281 110 52 12 345 111 148 86 85 57 117 125 135 122 212 226 223 225 225 44 251 259 259 263 268 234 255 271 286 294 292 293 288 280 282 286 289 279
123 90 68 54 47 60 31 51 8 335 304 83 102 156 110 82 121 121 140 181 181 261 227 241 261 189 208 261 250 261 269 245 256 261 269 267 266 270 277 277 279 276 264 257
118 107 97 90 97 130 106 27 354 322 72 11 129 127 173 196 178 162 192 162 192 195 277 312 252 229 213 251 248 258 270 275 268 253 254 265 276 273 272 256 258 236 232 233
127 125 139 126 23 49 60 334 322 24 43 121 200 171 157 183 106 86 163 248 227 95 240 248 241 236 229 242 254 265 277 269 262 262 253 263 263 264 260 248 229 234 239 237
135 178 57 29 24 338 276 77 30 28 3 18 213 165 134 226 165 131 128 275 299 256 213 101 239 256 261 267 272 274 268 265 257 249 256 255 251 249 240 230 227 230 241 248
98 68 77 54 293 300 22 31 14 16 242 130 244 239 141 86 194 132 297 169 84 243 134 238 246 258 263 272 260 267 273 264 254 250 258 272 267 265 233 220 223 226 234 239
97 105 97 42 36 50 50 73 208 224 265 175 196 152 130 108 338 176 184 209 180 250 108 244 254 257 281 285 267 262 262 256 255 247 247 252 250 243 243 234 230 231 235 238
81 59 74 24 23 234 223 200 193 231 187 167 172 145 134 146 231 124 177 211 230 29 224 237 244 292 312 304 280 277 285 259 251 250 252 255 253 241 237 244 246 245 244 240
82 132 175 233 174 239 218 274 17 45 348 150 170 124 178 130 187 165 221 120 239 236 235 234 260 288 306 298 299 297 290 277 268 263 260 256 250 250 246 242 244 244 244 245
115 145 218 217 237 169 54 359 273 97 136 141 137 126 193 176 206 205 192 209 232 228 243 267 284 303 304 312 302 296 285 275 258 263 262 260 258 257 259 258 254 246 245 241
168 212 219 200 234 190 197 197 226 171 160 150 244 153 218 224 219 190 208 227 229 253 255 256 287 284 278 285 290 293 275 267 264 263 260 262 261 254 250 257 253 251 246 245
190 215 233 240 314 310 144 177 195 164 168 209 210 224 223 245 219 209 224 243 264 283 293 304 300 292 286 285 290 290 277 266 267 264 262 255 254 257 253 254 253 246 234 233